| time (UTC) | temp F | wind direction | speed MPH | gust MPH | rain 1hr in | rain 24hr in | rain mn in | humidity % | barometer mb |
| 20260508175552 | 68 | 202 | 1.0 | 2.0 | 0.00 | 0.00 | 0.00 | 45 | 1016.7 |
| 20260508175051 | 69 | 193 | 2.0 | 4.0 | 0.00 | 0.00 | 0.00 | 45 | 1016.7 |
| 20260508174551 | 69 | 205 | 2.0 | 3.0 | 0.00 | 0.00 | 0.00 | 44 | 1016.5 |
| 20260508173551 | 70 | 184 | 2.0 | 2.0 | 0.00 | 0.00 | 0.00 | 41 | 1016.6 |
| 20260508173050 | 70 | 159 | 1.0 | 2.0 | 0.00 | 0.00 | 0.00 | 43 | 1016.8 |
| 20260508172549 | 70 | 179 | 2.0 | 6.0 | 0.00 | 0.00 | 0.00 | 43 | 1016.7 |
| 20260508171604 | 69 | 209 | 1.0 | 3.0 | 0.00 | 0.00 | 0.00 | 44 | 1016.5 |
| 20260508171049 | 69 | 215 | 1.0 | 2.0 | 0.00 | 0.00 | 0.00 | 43 | 1016.6 |
| 20260508170548 | 69 | 218 | 2.0 | 4.0 | 0.00 | 0.00 | 0.00 | 44 | 1016.5 |
| 20260508165602 | 71 | 229 | 2.0 | 6.0 | 0.00 | 0.00 | 0.00 | 41 | 1016.5 |
| 20260508165047 | 71 | 226 | 3.0 | 7.0 | 0.00 | 0.00 | 0.00 | 42 | 1016.6 |
| 20260508164601 | 71 | 249 | 2.0 | 4.0 | 0.00 | 0.00 | 0.00 | 41 | 1016.4 |
| 20260508163551 | 70 | 152 | 2.0 | 5.0 | 0.00 | 0.00 | 0.00 | 42 | 1016.5 |
| 20260508163050 | 69 | 131 | 2.0 | 2.0 | 0.00 | 0.00 | 0.00 | 46 | 1016.3 |
| 20260508162550 | 69 | 130 | 2.0 | 3.0 | 0.00 | 0.00 | 0.00 | 44 | 1016.5 |
| 20260508161605 | 71 | 112 | 2.0 | 3.0 | 0.00 | 0.00 | 0.00 | 42 | 1016.4 |
| 20260508161049 | 70 | 135 | 2.0 | 4.0 | 0.00 | 0.00 | 0.00 | 43 | 1016.3 |
| 20260508160549 | 69 | 134 | 2.0 | 2.0 | 0.00 | 0.00 | 0.00 | 43 | 1016.4 |
| 20260508155603 | 72 | 127 | 2.0 | 4.0 | 0.00 | 0.00 | 0.00 | 38 | 1016.6 |
| 20260508155053 | 72 | 6 | 2.0 | 4.0 | 0.00 | 0.00 | 0.00 | 41 | 1016.6 |
| 20260508154552 | 71 | 225 | 2.0 | 3.0 | 0.00 | 0.00 | 0.00 | 42 | 1016.5 |
| 20260508153552 | 70 | 236 | 2.0 | 3.0 | 0.00 | 0.00 | 0.00 | 43 | 1016.4 |
| 20260508153051 | 71 | 235 | 2.0 | 4.0 | 0.00 | 0.00 | 0.00 | 41 | 1016.5 |
| 20260508152551 | 71 | 233 | 4.0 | 5.0 | 0.00 | 0.00 | 0.00 | 45 | 1016.5 |
| 20260508151550 | 69 | 167 | 2.0 | 4.0 | 0.00 | 0.00 | 0.00 | 47 | 1016.5 |
| 20260508151050 | 68 | 165 | 2.0 | 2.0 | 0.00 | 0.00 | 0.00 | 50 | 1016.4 |
| 20260508150550 | 67 | 159 | 2.0 | 4.0 | 0.00 | 0.00 | 0.00 | 52 | 1016.4 |
| 20260508145604 | 66 | 146 | 3.0 | 7.0 | 0.00 | 0.00 | 0.00 | 51 | 1016.6 |
| 20260508145049 | 67 | 166 | 2.0 | 4.0 | 0.00 | 0.00 | 0.00 | 50 | 1016.6 |
| 20260508144549 | 68 | 150 | 3.0 | 7.0 | 0.00 | 0.00 | 0.00 | 49 | 1016.6 |
| 20260508143604 | 67 | 130 | 2.0 | 4.0 | 0.00 | 0.00 | 0.00 | 51 | 1016.7 |
| 20260508143053 | 67 | 107 | 1.0 | 2.0 | 0.00 | 0.00 | 0.00 | 51 | 1016.7 |
| 20260508142553 | 68 | 102 | 4.0 | 7.0 | 0.00 | 0.00 | 0.00 | 51 | 1016.6 |
| 20260508141553 | 68 | 129 | 2.0 | 2.0 | 0.00 | 0.00 | 0.00 | 50 | 1016.7 |
| 20260508141052 | 69 | 119 | 2.0 | 4.0 | 0.00 | 0.00 | 0.00 | 47 | 1016.7 |
| 20260508140551 | 69 | 107 | 3.0 | 7.0 | 0.00 | 0.00 | 0.00 | 47 | 1016.7 |
| 20260508135551 | 69 | 158 | 2.0 | 5.0 | 0.00 | 0.00 | 0.00 | 49 | 1016.7 |
| 20260508135051 | 69 | 104 | 4.0 | 9.0 | 0.00 | 0.00 | 0.00 | 49 | 1016.7 |
| 20260508134550 | 69 | 158 | 4.0 | 5.0 | 0.00 | 0.00 | 0.00 | 48 | 1016.9 |
| 20260508133550 | 67 | 125 | 3.0 | 6.0 | 0.00 | 0.00 | 0.00 | 53 | 1016.9 |
| 20260508133050 | 66 | 134 | 2.0 | 5.0 | 0.00 | 0.00 | 0.00 | 53 | 1016.9 |
| 20260508132549 | 66 | 115 | 4.0 | 8.0 | 0.00 | 0.00 | 0.00 | 53 | 1016.7 |
| 20260508131605 | 66 | 90 | 2.0 | 4.0 | 0.00 | 0.00 | 0.00 | 53 | 1016.9 |
| 20260508131109 | 66 | 72 | 4.0 | 4.0 | 0.00 | 0.00 | 0.00 | 54 | 1016.8 |
| 20260508130558 | 67 | 71 | 3.0 | 8.0 | 0.00 | 0.00 | 0.00 | 52 | 1016.6 |
| 20260508125558 | 68 | 173 | 3.0 | 5.0 | 0.00 | 0.00 | 0.00 | 52 | 1016.9 |
| 20260508125058 | 66 | 128 | 2.0 | 4.0 | 0.00 | 0.00 | 0.00 | 56 | 1016.9 |
| 20260508124558 | 64 | 57 | 2.0 | 5.0 | 0.00 | 0.00 | 0.00 | 61 | 1016.9 |
| 20260508123557 | 60 | 70 | 2.0 | 3.0 | 0.00 | 0.00 | 0.00 | 67 | 1016.9 |
| 20260508123057 | 59 | 90 | 2.0 | 3.0 | 0.00 | 0.00 | 0.00 | 68 | 1016.8 |
| 20260508122556 | 59 | 90 | 2.0 | 4.0 | 0.00 | 0.00 | 0.00 | 70 | 1016.9 |
| 20260508121556 | 59 | 90 | 0.0 | 2.0 | 0.00 | 0.00 | 0.00 | 72 | 1016.9 |
| 20260508121056 | 59 | 119 | 0.0 | 1.0 | 0.00 | 0.00 | 0.00 | 73 | 1016.7 |
| 20260508120110 | 59 | 124 | 1.0 | 2.0 | 0.00 | 0.00 | 0.00 | 74 | 1017.0 |
| 20260508115555 | 59 | 192 | 0.0 | 0.0 | 0.00 | 0.00 | 0.00 | 74 | 1016.9 |
| 20260508115110 | 59 | 192 | 0.0 | 1.0 | 0.00 | 0.00 | 0.00 | 74 | 1017.0 |
| 20260508114559 | 59 | 192 | 1.0 | 2.0 | 0.00 | 0.00 | 0.00 | 73 | 1017.1 |
| 20260508113603 | 59 | 144 | 1.0 | 2.0 | 0.00 | 0.00 | 0.00 | 74 | 1017.0 |
| 20260508113048 | 59 | 159 | 0.0 | 1.0 | 0.00 | 0.00 | 0.00 | 75 | 1017.0 |
| 20260508112603 | 59 | 150 | 0.0 | 1.0 | 0.00 | 0.00 | 0.00 | 76 | 1017.0 |
| 20260508111552 | 57 | 153 | 2.0 | 2.0 | 0.00 | 0.00 | 0.00 | 76 | 1017.1 |
| 20260508111051 | 57 | 200 | 1.0 | 2.0 | 0.00 | 0.00 | 0.00 | 77 | 1017.0 |
| 20260508110551 | 57 | 172 | 1.0 | 2.0 | 0.00 | 0.00 | 0.00 | 76 | 1017.0 |
| 20260508105551 | 57 | 183 | 1.0 | 2.0 | 0.00 | 0.00 | 0.00 | 74 | 1017.1 |
| 20260508105050 | 57 | 185 | 0.0 | 2.0 | 0.00 | 0.00 | 0.00 | 74 | 1017.1 |
| 20260508104550 | 57 | 183 | 1.0 | 2.0 | 0.00 | 0.00 | 0.00 | 74 | 1017.1 |
| 20260508103604 | 57 | 168 | 1.0 | 2.0 | 0.00 | 0.00 | 0.00 | 73 | 1017.2 |
| 20260508103049 | 57 | 172 | 2.0 | 2.0 | 0.00 | 0.00 | 0.00 | 72 | 1017.0 |
| 20260508102548 | 57 | 193 | 1.0 | 3.0 | 0.00 | 0.00 | 0.00 | 72 | 1016.9 |
| 20260508101603 | 58 | 211 | 1.0 | 2.0 | 0.00 | 0.00 | 0.00 | 68 | 1017.1 |
| 20260508101048 | 59 | 216 | 1.0 | 2.0 | 0.00 | 0.00 | 0.00 | 65 | 1017.1 |
| 20260508100547 | 59 | 212 | 2.0 | 3.0 | 0.00 | 0.00 | 0.00 | 62 | 1017.1 |
| 20260508095602 | 60 | 202 | 2.0 | 4.0 | 0.00 | 0.00 | 0.00 | 60 | 1016.9 |
| 20260508095046 | 61 | 253 | 2.0 | 3.0 | 0.00 | 0.00 | 0.00 | 60 | 1016.7 |
| 20260508094601 | 60 | 177 | 2.0 | 3.0 | 0.00 | 0.00 | 0.00 | 59 | 1016.9 |
| 20260508093551 | 61 | 179 | 2.0 | 4.0 | 0.00 | 0.00 | 0.00 | 59 | 1016.8 |
| 20260508093105 | 61 | 158 | 2.0 | 3.0 | 0.00 | 0.00 | 0.00 | 59 | 1016.8 |
| 20260508092555 | 61 | 151 | 0.0 | 2.0 | 0.00 | 0.00 | 0.00 | 59 | 1016.7 |
| 20260508091554 | 62 | 165 | 2.0 | 4.0 | 0.00 | 0.00 | 0.00 | 55 | 1016.9 |
| 20260508091054 | 63 | 139 | 2.0 | 4.0 | 0.00 | 0.00 | 0.00 | 52 | 1016.8 |
| 20260508090553 | 64 | 144 | 2.0 | 4.0 | 0.00 | 0.00 | 0.00 | 54 | 1016.7 |
| 20260508085608 | 64 | 147 | 2.0 | 3.0 | 0.00 | 0.00 | 0.00 | 52 | 1016.8 |
| 20260508085057 | 65 | 131 | 2.0 | 4.0 | 0.00 | 0.00 | 0.00 | 53 | 1016.7 |
| 20260508084612 | 65 | 105 | 3.0 | 6.0 | 0.00 | 0.00 | 0.00 | 55 | 1016.7 |
| 20260508083600 | 65 | 137 | 4.0 | 7.0 | 0.00 | 0.00 | 0.00 | 56 | 1016.7 |
| 20260508083050 | 64 | 144 | 1.0 | 2.0 | 0.00 | 0.00 | 0.00 | 58 | 1016.7 |
| 20260508082549 | 63 | 139 | 2.0 | 3.0 | 0.00 | 0.00 | 0.00 | 58 | 1016.7 |
| 20260508081549 | 63 | 155 | 2.0 | 3.0 | 0.00 | 0.00 | 0.00 | 58 | 1016.5 |
| 20260508081049 | 63 | 98 | 2.0 | 5.0 | 0.00 | 0.00 | 0.00 | 60 | 1016.6 |
| 20260508080548 | 63 | 288 | 2.0 | 2.0 | 0.00 | 0.00 | 0.00 | 63 | 1016.6 |
| 20260508075603 | 61 | 357 | 2.0 | 4.0 | 0.00 | 0.00 | 0.00 | 66 | 1016.7 |
| 20260508075102 | 60 | 345 | 3.0 | 5.0 | 0.00 | 0.00 | 0.00 | 68 | 1016.5 |
| 20260508074551 | 59 | 53 | 2.0 | 4.0 | 0.00 | 0.00 | 0.00 | 69 | 1016.6 |
| 20260508073551 | 58 | 80 | 3.0 | 7.0 | 0.00 | 0.00 | 0.00 | 73 | 1016.6 |
| 20260508073051 | 57 | 129 | 3.0 | 6.0 | 0.00 | 0.00 | 0.00 | 77 | 1016.6 |
| 20260508072551 | 56 | 108 | 2.0 | 3.0 | 0.00 | 0.00 | 0.00 | 80 | 1016.5 |
| 20260508071550 | 53 | 85 | 1.0 | 2.0 | 0.00 | 0.00 | 0.00 | 84 | 1016.5 |
| 20260508071050 | 53 | 85 | 1.0 | 2.0 | 0.00 | 0.00 | 0.00 | 83 | 1016.6 |
| 20260508070550 | 52 | 81 | 3.0 | 4.0 | 0.00 | 0.00 | 0.00 | 84 | 1016.5 |
| 20260508065549 | 52 | 109 | 2.0 | 3.0 | 0.00 | 0.00 | 0.00 | 84 | 1016.3 |
| 20260508065049 | 52 | 125 | 2.0 | 3.0 | 0.00 | 0.00 | 0.00 | 84 | 1016.3 |
| 20260508064549 | 52 | 110 | 3.0 | 4.0 | 0.00 | 0.00 | 0.00 | 84 | 1016.3 |
| 20260508063603 | 52 | 79 | 2.0 | 4.0 | 0.00 | 0.00 | 0.00 | 86 | 1016.4 |
| 20260508063048 | 51 | 28 | 1.0 | 2.0 | 0.00 | 0.00 | 0.00 | 86 | 1016.4 |
| 20260508062548 | 51 | 20 | 2.0 | 5.0 | 0.00 | 0.00 | 0.00 | 86 | 1016.6 |
| 20260508061602 | 51 | 350 | 2.0 | 3.0 | 0.00 | 0.00 | 0.00 | 87 | 1016.3 |
| 20260508061045 | 51 | 309 | 1.0 | 2.0 | 0.00 | 0.00 | 0.00 | 87 | 1016.5 |
| 20260508060600 | 51 | 296 | 2.0 | 4.0 | 0.00 | 0.00 | 0.00 | 87 | 1016.4 |
| 20260508055600 | 51 | 273 | 2.0 | 4.0 | 0.00 | 0.00 | 0.00 | 86 | 1016.6 |
| 20260508055059 | 51 | 269 | 0.0 | 2.0 | 0.00 | 0.00 | 0.00 | 86 | 1016.4 |
| 20260508054559 | 51 | 318 | 1.0 | 3.0 | 0.00 | 0.00 | 0.00 | 86 | 1016.4 |
| 20260508053559 | 51 | 14 | 1.0 | 2.0 | 0.00 | 0.00 | 0.00 | 86 | 1016.3 |
| 20260508053058 | 51 | 42 | 1.0 | 2.0 | 0.00 | 0.00 | 0.00 | 86 | 1016.1 |
| 20260508052558 | 51 | 58 | 1.0 | 2.0 | 0.00 | 0.00 | 0.00 | 86 | 1016.1 |
| 20260508051557 | 51 | 65 | 2.0 | 3.0 | 0.00 | 0.00 | 0.00 | 86 | 1016.3 |
| 20260508051057 | 51 | 103 | 0.0 | 1.0 | 0.00 | 0.00 | 0.00 | 87 | 1016.3 |
| 20260508050556 | 51 | 101 | 2.0 | 4.0 | 0.00 | 0.00 | 0.00 | 87 | 1016.1 |
| 20260508045556 | 50 | 123 | 1.0 | 2.0 | 0.00 | 0.00 | 0.00 | 87 | 1016.1 |
| 20260508045055 | 50 | 122 | 2.0 | 3.0 | 0.00 | 0.00 | 0.00 | 88 | 1016.1 |
| 20260508044555 | 50 | 149 | 3.0 | 4.0 | 0.00 | 0.00 | 0.00 | 88 | 1016.2 |
| 20260508043555 | 50 | 115 | 2.0 | 2.0 | 0.00 | 0.00 | 0.00 | 89 | 1016.1 |
| 20260508043054 | 50 | 85 | 2.0 | 2.0 | 0.00 | 0.00 | 0.00 | 90 | 1016.1 |
| 20260508042553 | 50 | 82 | 2.0 | 4.0 | 0.00 | 0.00 | 0.00 | 90 | 1016.0 |
| 20260508041553 | 50 | 107 | 2.0 | 4.0 | 0.00 | 0.00 | 0.00 | 90 | 1016.0 |
| 20260508041053 | 50 | 65 | 1.0 | 2.0 | 0.00 | 0.00 | 0.00 | 90 | 1016.0 |
| 20260508040608 | 50 | 45 | 0.0 | 2.0 | 0.00 | 0.00 | 0.00 | 91 | 1016.0 |
| 20260508035557 | 50 | 45 | 2.0 | 4.0 | 0.00 | 0.00 | 0.00 | 91 | 1016.1 |
| 20260508035057 | 49 | 180 | 0.0 | 2.0 | 0.00 | 0.00 | 0.00 | 91 | 1015.8 |
| 20260508034557 | 49 | 180 | 0.0 | 0.0 | 0.00 | 0.00 | 0.00 | 91 | 1016.1 |
| 20260508033556 | 49 | 180 | 0.0 | 1.0 | 0.00 | 0.00 | 0.00 | 91 | 1016.0 |
| 20260508033056 | 49 | 180 | 0.0 | 1.0 | 0.00 | 0.00 | 0.00 | 91 | 1016.0 |
| 20260508032555 | 49 | 180 | 0.0 | 1.0 | 0.00 | 0.00 | 0.00 | 91 | 1015.9 |
| 20260508031555 | 49 | 45 | 0.0 | 0.0 | 0.00 | 0.00 | 0.00 | 91 | 1016.1 |
| 20260508031055 | 49 | 45 | 0.0 | 0.0 | 0.00 | 0.00 | 0.00 | 91 | 1016.2 |
| 20260508030609 | 49 | 28 | 0.0 | 0.0 | 0.00 | 0.00 | 0.00 | 91 | 1016.1 |
| 20260508025559 | 49 | 28 | 0.0 | 0.0 | 0.00 | 0.00 | 0.00 | 90 | 1016.2 |
| 20260508025058 | 48 | 28 | 1.0 | 2.0 | 0.00 | 0.00 | 0.00 | 89 | 1016.2 |
| 20260508024558 | 48 | 360 | 0.0 | 1.0 | 0.00 | 0.00 | 0.00 | 90 | 1016.3 |
| 20260508023558 | 48 | 180 | 0.0 | 0.0 | 0.00 | 0.00 | 0.00 | 89 | 1016.5 |
| 20260508023057 | 48 | 180 | 0.0 | 0.0 | 0.00 | 0.00 | 0.00 | 89 | 1016.3 |
| 20260508022557 | 48 | 180 | 0.0 | 0.0 | 0.00 | 0.00 | 0.00 | 89 | 1016.2 |
| 20260508021601 | 48 | 180 | 0.0 | 1.0 | 0.00 | 0.00 | 0.00 | 89 | 1016.2 |
| 20260508021046 | 48 | 180 | 0.0 | 0.0 | 0.00 | 0.00 | 0.00 | 89 | 1016.2 |
| 20260508020600 | 48 | 180 | 0.0 | 0.0 | 0.00 | 0.00 | 0.00 | 88 | 1016.3 |
| 20260508015550 | 48 | 180 | 0.0 | 0.0 | 0.00 | 0.00 | 0.00 | 87 | 1016.4 |
| 20260508015050 | 48 | 180 | 0.0 | 0.0 | 0.00 | 0.00 | 0.00 | 87 | 1016.3 |
| 20260508014549 | 48 | 180 | 0.0 | 0.0 | 0.00 | 0.00 | 0.00 | 87 | 1016.3 |
| 20260508013549 | 48 | 180 | 0.0 | 0.0 | 0.00 | 0.00 | 0.00 | 87 | 1016.3 |
| 20260508013049 | 48 | 180 | 0.0 | 1.0 | 0.00 | 0.00 | 0.00 | 86 | 1016.3 |
| 20260508012549 | 48 | 180 | 0.0 | 0.0 | 0.00 | 0.00 | 0.00 | 85 | 1016.3 |
| 20260508011603 | 48 | 180 | 0.0 | 0.0 | 0.00 | 0.00 | 0.00 | 85 | 1016.1 |
| 20260508011048 | 48 | 180 | 0.0 | 1.0 | 0.00 | 0.00 | 0.00 | 85 | 1016.3 |
| 20260508010548 | 48 | 180 | 0.0 | 0.0 | 0.00 | 0.00 | 0.00 | 85 | 1016.4 |
| 20260508005603 | 49 | 180 | 0.0 | 0.0 | 0.00 | 0.00 | 0.00 | 83 | 1016.4 |
| 20260508005047 | 49 | 180 | 0.0 | 0.0 | 0.00 | 0.00 | 0.00 | 83 | 1016.5 |
| 20260508004547 | 49 | 45 | 0.0 | 0.0 | 0.00 | 0.00 | 0.00 | 83 | 1016.4 |
| 20260508003601 | 50 | 45 | 0.0 | 1.0 | 0.00 | 0.00 | 0.00 | 84 | 1016.6 |
| 20260508003046 | 50 | 45 | 0.0 | 1.0 | 0.00 | 0.00 | 0.00 | 84 | 1016.5 |
| 20260508002546 | 49 | 37 | 0.0 | 2.0 | 0.00 | 0.00 | 0.00 | 84 | 1016.6 |
| 20260508001600 | 49 | 30 | 1.0 | 2.0 | 0.00 | 0.00 | 0.00 | 84 | 1016.6 |
| 20260508001100 | 49 | 360 | 0.0 | 1.0 | 0.00 | 0.00 | 0.00 | 83 | 1016.5 |
| 20260508000559 | 49 | 360 | 0.0 | 0.0 | 0.00 | 0.00 | 0.00 | 83 | 1016.6 |
| 20260507235549 | 48 | 180 | 0.0 | 0.0 | 0.00 | 0.00 | 0.00 | 84 | 1016.5 |
| 20260507235104 | 48 | 90 | 0.0 | 0.0 | 0.00 | 0.00 | 0.00 | 84 | 1016.5 |
| 20260507234553 | 48 | 90 | 0.0 | 0.0 | 0.00 | 0.00 | 0.00 | 83 | 1016.6 |
| 20260507233553 | 49 | 90 | 0.0 | 0.0 | 0.00 | 0.00 | 0.00 | 82 | 1016.7 |
| 20260507233052 | 49 | 90 | 0.0 | 0.0 | 0.00 | 0.00 | 0.00 | 82 | 1016.8 |
| 20260507232552 | 49 | 90 | 1.0 | 2.0 | 0.00 | 0.00 | 0.00 | 82 | 1016.7 |
| 20260507231552 | 49 | 180 | 0.0 | 0.0 | 0.00 | 0.00 | 0.00 | 82 | 1016.7 |
| 20260507231052 | 49 | 180 | 0.0 | 1.0 | 0.00 | 0.00 | 0.00 | 82 | 1016.7 |
| 20260507230551 | 49 | 180 | 0.0 | 2.0 | 0.00 | 0.00 | 0.00 | 82 | 1016.8 |
| 20260507225606 | 49 | 180 | 0.0 | 1.0 | 0.00 | 0.00 | 0.00 | 81 | 1016.7 |
| 20260507225050 | 49 | 180 | 0.0 | 0.0 | 0.00 | 0.00 | 0.00 | 81 | 1016.9 |
| 20260507224550 | 49 | 180 | 0.0 | 0.0 | 0.00 | 0.00 | 0.00 | 81 | 1017.0 |
| 20260507223604 | 50 | 180 | 0.0 | 0.0 | 0.00 | 0.00 | 0.00 | 79 | 1016.8 |
| 20260507223049 | 50 | 180 | 0.0 | 0.0 | 0.00 | 0.00 | 0.00 | 78 | 1016.9 |
| 20260507222548 | 50 | 180 | 0.0 | 1.0 | 0.00 | 0.00 | 0.00 | 78 | 1017.0 |
| 20260507221603 | 51 | 45 | 0.0 | 0.0 | 0.00 | 0.00 | 0.00 | 77 | 1016.8 |
| 20260507221048 | 51 | 65 | 0.0 | 1.0 | 0.00 | 0.00 | 0.00 | 77 | 1016.8 |
| 20260507220547 | 51 | 65 | 0.0 | 0.0 | 0.00 | 0.00 | 0.00 | 77 | 1016.7 |
| 20260507215602 | 51 | 67 | 0.0 | 0.0 | 0.00 | 0.00 | 0.00 | 77 | 1016.7 |
| 20260507215101 | 51 | 67 | 2.0 | 3.0 | 0.00 | 0.00 | 0.00 | 77 | 1016.8 |
| 20260507214601 | 51 | 90 | 2.0 | 2.0 | 0.00 | 0.00 | 0.00 | 76 | 1016.9 |
| 20260507213601 | 52 | 90 | 0.0 | 1.0 | 0.00 | 0.00 | 0.00 | 76 | 1016.9 |
| 20260507213100 | 52 | 90 | 1.0 | 2.0 | 0.00 | 0.00 | 0.00 | 76 | 1017.0 |
| 20260507212550 | 52 | 180 | 0.0 | 0.0 | 0.00 | 0.00 | 0.00 | 76 | 1016.9 |
| 20260507211605 | 52 | 180 | 0.0 | 1.0 | 0.00 | 0.00 | 0.00 | 74 | 1016.8 |
| 20260507211049 | 52 | 180 | 0.0 | 1.0 | 0.00 | 0.00 | 0.00 | 75 | 1017.0 |
| 20260507210604 | 52 | 180 | 0.0 | 1.0 | 0.00 | 0.00 | 0.00 | 74 | 1016.8 |
| 20260507205553 | 52 | 180 | 0.0 | 2.0 | 0.00 | 0.00 | 0.00 | 73 | 1016.7 |
| 20260507205053 | 53 | 180 | 0.0 | 0.0 | 0.00 | 0.00 | 0.00 | 74 | 1016.9 |
| 20260507204553 | 53 | 180 | 0.0 | 2.0 | 0.00 | 0.00 | 0.00 | 73 | 1016.8 |
| 20260507203553 | 53 | 180 | 0.0 | 1.0 | 0.00 | 0.00 | 0.00 | 73 | 1016.7 |
| 20260507203107 | 53 | 180 | 0.0 | 0.0 | 0.00 | 0.00 | 0.00 | 72 | 1016.6 |
| 20260507202556 | 54 | 180 | 0.0 | 0.0 | 0.00 | 0.00 | 0.00 | 71 | 1016.5 |
| 20260507201556 | 54 | 180 | 0.0 | 1.0 | 0.00 | 0.00 | 0.00 | 71 | 1016.5 |
| 20260507201111 | 54 | 163 | 0.0 | 2.0 | 0.00 | 0.00 | 0.00 | 71 | 1016.3 |
| 20260507200600 | 54 | 156 | 0.0 | 1.0 | 0.00 | 0.00 | 0.00 | 71 | 1016.1 |
| 20260507195600 | 55 | 156 | 1.0 | 2.0 | 0.00 | 0.00 | 0.00 | 70 | 1016.0 |
| 20260507195059 | 55 | 141 | 0.0 | 2.0 | 0.00 | 0.00 | 0.00 | 70 | 1016.0 |
| 20260507194559 | 55 | 141 | 1.0 | 2.0 | 0.00 | 0.00 | 0.00 | 70 | 1016.1 |
| 20260507193559 | 55 | 158 | 1.0 | 2.0 | 0.00 | 0.00 | 0.00 | 69 | 1015.8 |
| 20260507193059 | 56 | 180 | 0.0 | 1.0 | 0.00 | 0.00 | 0.00 | 68 | 1015.8 |
| 20260507192558 | 56 | 180 | 0.0 | 1.0 | 0.00 | 0.00 | 0.00 | 67 | 1015.8 |
| 20260507191558 | 57 | 180 | 0.0 | 1.0 | 0.00 | 0.00 | 0.00 | 66 | 1015.9 |
| 20260507191057 | 57 | 135 | 0.0 | 1.0 | 0.00 | 0.00 | 0.00 | 65 | 1015.8 |
| 20260507190557 | 57 | 239 | 0.0 | 1.0 | 0.00 | 0.00 | 0.00 | 63 | 1015.8 |
| 20260507185557 | 58 | 253 | 0.0 | 0.0 | 0.00 | 0.00 | 0.00 | 62 | 1015.7 |
| 20260507185056 | 58 | 249 | 0.0 | 1.0 | 0.00 | 0.00 | 0.00 | 61 | 1015.6 |
| 20260507184556 | 59 | 255 | 1.0 | 2.0 | 0.00 | 0.00 | 0.00 | 61 | 1015.5 |
| 20260507183555 | 59 | 245 | 0.0 | 2.0 | 0.00 | 0.00 | 0.00 | 60 | 1015.6 |
| 20260507183055 | 59 | 244 | 2.0 | 3.0 | 0.00 | 0.00 | 0.00 | 59 | 1015.6 |
| 20260507182554 | 59 | 229 | 1.0 | 2.0 | 0.00 | 0.00 | 0.00 | 58 | 1015.6 |
| 20260507181554 | 59 | 224 | 2.0 | 3.0 | 0.00 | 0.00 | 0.00 | 58 | 1015.4 |
| 20260507181053 | 59 | 211 | 2.0 | 3.0 | 0.00 | 0.00 | 0.00 | 58 | 1015.5 |
| 20260507180553 | 59 | 231 | 1.0 | 2.0 | 0.00 | 0.00 | 0.00 | 57 | 1015.5 |